ELY5156 LBWN-LLBG

Flight info

Callsign ELY5156
Flight time 1h 53m
Altitude 37000
Route IVGOT DCT RIXEN UG1 TETSA UN616 IST UT35 AYT UM855 TOMBI DCT IDAKU L35 PIKOG L609 ZUKKO
Aircraft B738/M-SDE2E3FGHIRWXY/LB1

Departure

Time 2026-05-07 18:55
Airport Varna Airport (LBWN)

Arrival

Time 2026-05-07 20:49
Airport Ben Gurion International Airport (LLBG)
Time Latitude Longitude Altitude Speed Heading
2026-05-07 18:36 43.23610 27.82628 221 ft 0 kts
2026-05-07 18:49 43.23594 27.82624 221 ft 4 kts 21°
2026-05-07 18:49 43.23574 27.82605 223 ft 4 kts 65°
2026-05-07 18:49 43.23569 27.82575 221 ft 1 kts 97°
2026-05-07 18:49 43.23569 27.82574 221 ft 0 kts 97°
2026-05-07 18:51 43.23569 27.82577 222 ft 1 kts 97°
2026-05-07 18:51 43.23565 27.82616 221 ft 7 kts 98°
2026-05-07 18:51 43.23557 27.82723 221 ft 17 kts 96°
2026-05-07 18:52 43.23544 27.82878 222 ft 1 kts 123°
2026-05-07 18:52 43.23553 27.82928 221 ft 13 kts 81°
2026-05-07 18:52 43.23548 27.83092 221 ft 18 kts 93°
2026-05-07 18:52 43.23538 27.83264 221 ft 18 kts 101°
2026-05-07 18:53 43.23449 27.83343 221 ft 17 kts 189°
2026-05-07 18:53 43.23369 27.83419 223 ft 17 kts 103°
2026-05-07 18:53 43.23354 27.83577 223 ft 18 kts 99°
2026-05-07 18:53 43.23336 27.83766 221 ft 24 kts 96°
2026-05-07 18:54 43.23293 27.84037 223 ft 31 kts 130°
2026-05-07 18:54 43.23101 27.84053 222 ft 29 kts 217°
2026-05-07 18:54 43.23083 27.83794 221 ft 31 kts 277°
2026-05-07 18:54 43.23137 27.83191 221 ft 97 kts 277°
2026-05-07 18:55 43.23243 27.81989 224 ft 155 kts 276°
2026-05-07 18:55 43.23370 27.80412 678 ft 163 kts 277°
2026-05-07 18:55 43.23512 27.78863 1419 ft 169 kts 273°
2026-05-07 18:55 43.23158 27.77349 1961 ft 175 kts 224°
2026-05-07 18:56 43.21996 27.76669 2227 ft 198 kts 176°
2026-05-07 18:56 43.20657 27.77348 2436 ft 218 kts 142°
2026-05-07 18:56 43.19784 27.79112 2678 ft 237 kts 109°
2026-05-07 18:56 43.19021 27.81201 2913 ft 255 kts 136°
2026-05-07 18:57 43.17515 27.82502 3594 ft 258 kts 154°
2026-05-07 18:57 43.15901 27.83618 4332 ft 263 kts 153°
2026-05-07 18:57 43.14297 27.84794 5026 ft 268 kts 152°
2026-05-07 18:57 43.12658 27.86060 5735 ft 273 kts 151°
2026-05-07 18:58 43.11008 27.87385 6445 ft 277 kts 150°
2026-05-07 18:58 43.09347 27.88756 7148 ft 281 kts 149°
2026-05-07 18:58 43.07671 27.90169 7853 ft 284 kts 149°
2026-05-07 18:58 43.05981 27.91617 8525 ft 288 kts 148°
2026-05-07 18:59 43.04277 27.93092 9199 ft 292 kts 148°
2026-05-07 18:59 43.02554 27.94595 9882 ft 295 kts 148°
2026-05-07 18:59 43.00815 27.96118 10472 ft 302 kts 148°
2026-05-07 18:59 42.98979 27.97731 10639 ft 324 kts 147°
2026-05-07 19:00 42.97031 27.99443 10949 ft 339 kts 147°
2026-05-07 19:00 42.95031 28.01205 11520 ft 345 kts 147°
2026-05-07 19:00 42.93006 28.02990 12175 ft 348 kts 147°
2026-05-07 19:00 42.90962 28.04792 12857 ft 351 kts 147°
2026-05-07 19:01 42.88903 28.06606 13511 ft 354 kts 147°
2026-05-07 19:01 42.86824 28.08437 14157 ft 358 kts 147°
2026-05-07 19:01 42.84721 28.10287 14816 ft 362 kts 147°
2026-05-07 19:01 42.82628 28.12127 15450 ft 366 kts 147°
2026-05-07 19:02 42.81208 28.13374 15872 ft 368 kts 147°
2026-05-07 19:02 42.79042 28.15276 16515 ft 372 kts 147°
2026-05-07 19:02 42.76857 28.17192 17153 ft 375 kts 147°
2026-05-07 19:02 42.74654 28.19123 17747 ft 379 kts 147°
2026-05-07 19:03 42.72428 28.21072 18328 ft 383 kts 147°
2026-05-07 19:03 42.70180 28.23038 18902 ft 386 kts 147°
2026-05-07 19:03 42.67908 28.25024 19440 ft 391 kts 147°
2026-05-07 19:03 42.65610 28.27031 19983 ft 394 kts 147°
2026-05-07 19:04 42.63293 28.29053 20509 ft 398 kts 147°
2026-05-07 19:04 42.60946 28.31098 21014 ft 402 kts 147°
2026-05-07 19:04 42.58586 28.33154 21523 ft 405 kts 147°
2026-05-07 19:04 42.56197 28.35232 22002 ft 409 kts 147°
2026-05-07 19:05 42.53792 28.37324 22460 ft 413 kts 147°
2026-05-07 19:05 42.51362 28.39436 22937 ft 416 kts 147°
2026-05-07 19:05 42.49074 28.41421 23359 ft 419 kts 147°
2026-05-07 19:05 42.46641 28.43529 23767 ft 423 kts 147°
2026-05-07 19:06 42.44116 28.45716 24184 ft 427 kts 147°
2026-05-07 19:06 42.39119 28.50037 25025 ft 432 kts 147°
2026-05-07 19:06 42.36578 28.52232 25431 ft 434 kts 147°
2026-05-07 19:07 42.34020 28.54438 25835 ft 437 kts 147°
2026-05-07 19:07 42.31449 28.56653 26202 ft 440 kts 147°
2026-05-07 19:07 42.28866 28.58877 26579 ft 442 kts 147°
2026-05-07 19:07 42.26259 28.61121 26938 ft 445 kts 147°
2026-05-07 19:08 42.23643 28.63370 27286 ft 447 kts 147°
2026-05-07 19:08 42.21009 28.65632 27633 ft 450 kts 147°
2026-05-07 19:08 42.18366 28.67900 27966 ft 452 kts 147°
2026-05-07 19:08 42.15710 28.70175 28293 ft 453 kts 148°
2026-05-07 19:09 42.13034 28.72463 28583 ft 456 kts 148°
2026-05-07 19:09 42.10273 28.74585 28875 ft 459 kts 156°
2026-05-07 19:09 42.07382 28.76009 29165 ft 460 kts 166°
2026-05-07 19:09 42.04240 28.76849 29470 ft 460 kts 175°
2026-05-07 19:10 42.01038 28.77052 29771 ft 461 kts 180°
2026-05-07 19:10 41.97828 28.77120 30048 ft 463 kts 181°
2026-05-07 19:10 41.94605 28.77182 30309 ft 465 kts 180°
2026-05-07 19:10 41.91362 28.77265 30568 ft 467 kts 180°
2026-05-07 19:11 41.88111 28.77371 30833 ft 468 kts 180°
2026-05-07 19:11 41.84851 28.77494 31093 ft 470 kts 180°
2026-05-07 19:11 41.81578 28.77625 31344 ft 471 kts 180°
2026-05-07 19:11 41.78304 28.77756 31653 ft 470 kts 180°
2026-05-07 19:12 41.75037 28.77884 32014 ft 468 kts 180°
2026-05-07 19:12 41.71786 28.78013 32353 ft 467 kts 180°
2026-05-07 19:12 41.68542 28.78146 32655 ft 466 kts 180°
2026-05-07 19:12 41.65294 28.78280 32938 ft 466 kts 180°
2026-05-07 19:13 41.62056 28.78415 33231 ft 465 kts 180°
2026-05-07 19:13 41.58824 28.78549 33544 ft 464 kts 180°
2026-05-07 19:13 41.55602 28.78681 33822 ft 463 kts 180°
2026-05-07 19:13 41.52385 28.78812 34068 ft 463 kts 180°
2026-05-07 19:14 41.49165 28.78945 34326 ft 463 kts 180°
2026-05-07 19:14 41.45947 28.79073 34596 ft 462 kts 180°
2026-05-07 19:14 41.42740 28.79191 34867 ft 461 kts 180°
2026-05-07 19:14 41.39536 28.79304 35105 ft 460 kts 180°
2026-05-07 19:15 41.36337 28.79416 35325 ft 460 kts 180°
2026-05-07 19:15 41.33139 28.79529 35568 ft 459 kts 180°
2026-05-07 19:15 41.29953 28.79643 35809 ft 458 kts 180°
2026-05-07 19:15 41.26766 28.79758 36026 ft 458 kts 180°
2026-05-07 19:16 41.23583 28.79872 36215 ft 458 kts 180°
2026-05-07 19:16 41.20433 28.79992 36379 ft 459 kts 180°
2026-05-07 19:16 41.17201 28.80138 36568 ft 459 kts 180°
2026-05-07 19:16 41.14062 28.80285 36848 ft 456 kts 179°
2026-05-07 19:17 41.10867 28.80435 37126 ft 453 kts 180°
2026-05-07 19:17 41.07746 28.80578 37084 ft 455 kts 180°
2026-05-07 19:17 41.01457 28.80861 37097 ft 449 kts 180°
2026-05-07 19:18 40.95275 28.81686 37102 ft 448 kts 167°
2026-05-07 19:18 40.89437 28.84567 37111 ft 448 kts 158°
2026-05-07 19:19 40.83708 28.87790 37110 ft 448 kts 158°
2026-05-07 19:19 40.77958 28.90981 37113 ft 448 kts 158°
2026-05-07 19:20 40.72188 28.94133 37113 ft 449 kts 158°
2026-05-07 19:20 40.66399 28.97272 37122 ft 451 kts 159°
2026-05-07 19:21 40.60584 29.00418 37127 ft 452 kts 159°
2026-05-07 19:21 40.54754 29.03567 37123 ft 454 kts 159°
2026-05-07 19:22 40.48902 29.06723 37116 ft 455 kts 159°
2026-05-07 19:22 40.43038 29.09881 37128 ft 456 kts 159°
2026-05-07 19:23 40.37165 29.13036 37134 ft 456 kts 159°
2026-05-07 19:23 40.31286 29.16189 37128 ft 457 kts 159°
2026-05-07 19:24 40.25402 29.19339 37122 ft 457 kts 159°
2026-05-07 19:24 40.19525 29.22479 37130 ft 456 kts 159°
2026-05-07 19:25 40.13655 29.25610 37130 ft 455 kts 159°
2026-05-07 19:25 40.07796 29.28729 37145 ft 454 kts 159°
2026-05-07 19:26 40.01945 29.31838 37136 ft 454 kts 159°
2026-05-07 19:26 39.96093 29.34944 37140 ft 454 kts 159°
2026-05-07 19:27 39.90245 29.38042 37142 ft 454 kts 159°
2026-05-07 19:27 39.84424 29.41222 37143 ft 453 kts 158°
2026-05-07 19:28 39.78624 29.44434 37148 ft 453 kts 158°
2026-05-07 19:28 39.72816 29.47628 37142 ft 453 kts 158°
2026-05-07 19:29 39.67006 29.50810 37137 ft 453 kts 158°
2026-05-07 19:29 39.61213 29.53916 37138 ft 453 kts 159°
2026-05-07 19:30 39.55321 29.56852 37136 ft 454 kts 160°
2026-05-07 19:30 39.49422 29.59759 37166 ft 454 kts 160°
2026-05-07 19:31 39.43527 29.62685 37175 ft 454 kts 160°
2026-05-07 19:31 39.37630 29.65619 37178 ft 454 kts 160°
2026-05-07 19:32 39.31723 29.68558 37171 ft 455 kts 160°
2026-05-07 19:32 39.25809 29.71494 37197 ft 455 kts 160°
2026-05-07 19:33 39.19903 29.74416 37196 ft 455 kts 160°
2026-05-07 19:33 39.13987 29.77344 37197 ft 456 kts 160°
2026-05-07 19:34 39.08067 29.80269 37205 ft 455 kts 160°
2026-05-07 19:34 39.02152 29.83184 37201 ft 455 kts 160°
2026-05-07 19:35 38.96240 29.86092 37203 ft 455 kts 160°
2026-05-07 19:35 38.90335 29.88993 37204 ft 454 kts 160°
2026-05-07 19:36 38.84423 29.91851 37202 ft 454 kts 161°
2026-05-07 19:36 38.78501 29.94653 37208 ft 454 kts 161°
2026-05-07 19:37 38.72576 29.97455 37200 ft 454 kts 161°
2026-05-07 19:37 38.66654 30.00258 37204 ft 454 kts 161°
2026-05-07 19:38 38.60732 30.03061 37196 ft 453 kts 161°
2026-05-07 19:38 38.54860 30.05836 37203 ft 453 kts 161°
2026-05-07 19:39 38.48953 30.08621 37212 ft 452 kts 161°
2026-05-07 19:39 38.43054 30.11397 37212 ft 452 kts 161°
2026-05-07 19:40 38.37145 30.14176 37211 ft 452 kts 161°
2026-05-07 19:40 38.31237 30.16929 37213 ft 452 kts 162°
2026-05-07 19:41 38.25307 30.19616 37214 ft 452 kts 162°
2026-05-07 19:41 38.19381 30.22329 37212 ft 453 kts 161°
2026-05-07 19:42 38.13451 30.25062 37216 ft 453 kts 161°
2026-05-07 19:42 38.07517 30.27788 37211 ft 454 kts 161°
2026-05-07 19:43 38.01582 30.30506 37216 ft 454 kts 161°
2026-05-07 19:43 37.95626 30.33211 37210 ft 454 kts 162°
2026-05-07 19:44 37.89670 30.35899 37210 ft 454 kts 162°
2026-05-07 19:44 37.83758 30.38567 37214 ft 454 kts 162°
2026-05-07 19:45 37.77806 30.41248 37215 ft 454 kts 162°
2026-05-07 19:45 37.71854 30.43929 37212 ft 454 kts 162°
2026-05-07 19:46 37.65896 30.46606 37211 ft 454 kts 162°
2026-05-07 19:46 37.59946 30.49276 37211 ft 454 kts 162°
2026-05-07 19:47 37.53997 30.51941 37204 ft 454 kts 162°
2026-05-07 19:47 37.48048 30.54600 37206 ft 454 kts 162°
2026-05-07 19:48 37.42095 30.57257 37194 ft 454 kts 162°
2026-05-07 19:48 37.36148 30.59906 37183 ft 454 kts 162°
2026-05-07 19:49 37.30190 30.62558 37184 ft 454 kts 162°
2026-05-07 19:49 37.24230 30.65204 37170 ft 454 kts 162°
2026-05-07 19:50 37.19277 30.67401 37178 ft 455 kts 162°
2026-05-07 19:50 37.13317 30.70040 37163 ft 455 kts 162°
2026-05-07 19:51 37.07347 30.72679 37163 ft 455 kts 162°
2026-05-07 19:51 37.01384 30.75311 37165 ft 454 kts 162°
2026-05-07 19:52 36.95421 30.77938 37155 ft 454 kts 162°
2026-05-07 19:52 36.89298 30.79650 37146 ft 449 kts 180°
2026-05-07 19:53 36.83058 30.79823 37154 ft 449 kts 181°
2026-05-07 19:53 36.76815 30.79966 37159 ft 449 kts 181°
2026-05-07 19:54 36.70568 30.80165 37154 ft 449 kts 180°
2026-05-07 19:54 36.64358 30.80388 37160 ft 449 kts 180°
2026-05-07 19:55 36.58112 30.80613 37155 ft 450 kts 180°
2026-05-07 19:55 36.51859 30.80836 37158 ft 450 kts 180°
2026-05-07 19:56 36.45601 30.81058 37157 ft 450 kts 180°
2026-05-07 19:56 36.39344 30.81277 37158 ft 450 kts 181°
2026-05-07 19:57 36.33087 30.81477 37157 ft 450 kts 181°
2026-05-07 19:57 36.26820 30.81675 37165 ft 450 kts 181°
2026-05-07 19:58 36.20556 30.81875 37162 ft 451 kts 181°
2026-05-07 19:58 36.14280 30.82074 37156 ft 451 kts 181°
2026-05-07 19:59 36.08014 30.82304 37155 ft 451 kts 177°
2026-05-07 19:59 36.04927 30.83031 37153 ft 454 kts 163°
2026-05-07 19:59 36.02026 30.84566 37164 ft 455 kts 151°
2026-05-07 20:00 35.96956 30.89234 37160 ft 455 kts 141°
2026-05-07 20:00 35.92055 30.94195 37158 ft 455 kts 141°
2026-05-07 20:01 35.87130 30.99119 37157 ft 456 kts 141°
2026-05-07 20:01 35.82187 31.03998 37156 ft 456 kts 142°
2026-05-07 20:02 35.77256 31.08836 37158 ft 456 kts 142°
2026-05-07 20:02 35.72285 31.13703 37152 ft 457 kts 142°
2026-05-07 20:03 35.67306 31.18571 37150 ft 457 kts 142°
2026-05-07 20:03 35.62320 31.23441 37145 ft 458 kts 142°
2026-05-07 20:04 35.57329 31.28309 37152 ft 458 kts 142°
2026-05-07 20:04 35.52330 31.33178 37146 ft 459 kts 142°
2026-05-07 20:05 35.47324 31.38040 37148 ft 459 kts 142°
2026-05-07 20:05 35.42319 31.42895 37148 ft 459 kts 142°
2026-05-07 20:06 35.37311 31.47745 37147 ft 458 kts 142°
2026-05-07 20:06 35.32309 31.52581 37147 ft 458 kts 142°
2026-05-07 20:07 35.27305 31.57412 37147 ft 458 kts 142°
2026-05-07 20:07 35.22300 31.62238 37143 ft 458 kts 142°
2026-05-07 20:08 35.17298 31.67053 37136 ft 458 kts 142°
2026-05-07 20:08 35.12293 31.71862 37138 ft 457 kts 142°
2026-05-07 20:09 35.07292 31.76658 37137 ft 457 kts 142°
2026-05-07 20:10 34.99831 31.83801 37137 ft 456 kts 142°
2026-05-07 20:10 34.94835 31.88575 37139 ft 456 kts 142°
2026-05-07 20:11 34.89843 31.93339 37138 ft 456 kts 142°
2026-05-07 20:11 34.84846 31.98096 37138 ft 456 kts 142°
2026-05-07 20:12 34.79855 32.02841 37130 ft 455 kts 142°
2026-05-07 20:12 34.74860 32.07585 37129 ft 455 kts 142°
2026-05-07 20:13 34.69865 32.12320 37129 ft 456 kts 142°
2026-05-07 20:13 34.64861 32.17055 37129 ft 456 kts 142°
2026-05-07 20:14 34.59856 32.21785 37131 ft 456 kts 142°
2026-05-07 20:14 34.54845 32.26513 37130 ft 456 kts 142°
2026-05-07 20:15 34.49835 32.31234 37128 ft 456 kts 142°
2026-05-07 20:15 34.44818 32.35952 37131 ft 456 kts 142°
2026-05-07 20:16 34.39801 32.40665 37130 ft 456 kts 142°
2026-05-07 20:16 34.34786 32.45367 37129 ft 456 kts 142°
2026-05-07 20:17 34.29769 32.50063 37130 ft 456 kts 142°
2026-05-07 20:17 34.24754 32.54751 37119 ft 456 kts 142°
2026-05-07 20:18 34.19770 32.59403 37121 ft 455 kts 142°
2026-05-07 20:18 34.14755 32.64078 37114 ft 456 kts 142°
2026-05-07 20:19 34.09735 32.68749 37108 ft 456 kts 142°
2026-05-07 20:19 34.04526 32.73082 37118 ft 455 kts 148°
2026-05-07 20:20 33.99113 32.77034 37109 ft 455 kts 149°
2026-05-07 20:20 33.93699 32.80970 37114 ft 455 kts 149°
2026-05-07 20:21 33.88310 32.84944 37106 ft 454 kts 149°
2026-05-07 20:21 33.82938 32.88932 37111 ft 454 kts 149°
2026-05-07 20:22 33.77576 32.92914 37111 ft 453 kts 149°
2026-05-07 20:22 33.72213 32.96890 37117 ft 452 kts 149°
2026-05-07 20:22 33.69519 32.98884 36726 ft 458 kts 149°
2026-05-07 20:23 33.66810 33.00887 36267 ft 456 kts 149°
2026-05-07 20:23 33.64108 33.02884 35693 ft 456 kts 149°
2026-05-07 20:23 33.61405 33.04879 35104 ft 457 kts 149°
2026-05-07 20:23 33.58694 33.06879 34506 ft 458 kts 149°
2026-05-07 20:24 33.55978 33.08881 33891 ft 459 kts 149°
2026-05-07 20:24 33.53297 33.10856 33270 ft 460 kts 149°
2026-05-07 20:24 33.50567 33.12865 32614 ft 461 kts 149°
2026-05-07 20:24 33.47830 33.14878 31953 ft 462 kts 149°
2026-05-07 20:25 33.45088 33.16894 31271 ft 463 kts 149°
2026-05-07 20:25 33.42344 33.18910 30710 ft 462 kts 149°
2026-05-07 20:25 33.39617 33.20912 30225 ft 458 kts 149°
2026-05-07 20:25 33.36910 33.22897 29732 ft 454 kts 149°
2026-05-07 20:26 33.34230 33.24861 29239 ft 450 kts 149°
2026-05-07 20:26 33.31568 33.26810 28742 ft 446 kts 149°
2026-05-07 20:26 33.28932 33.28740 28253 ft 443 kts 149°
2026-05-07 20:26 33.26317 33.30652 27765 ft 439 kts 149°
2026-05-07 20:27 33.23724 33.32548 27281 ft 436 kts 149°
2026-05-07 20:27 33.21145 33.34431 26800 ft 432 kts 149°
2026-05-07 20:27 33.18645 33.36394 26359 ft 429 kts 141°
2026-05-07 20:27 33.16422 33.38714 26141 ft 422 kts 137°
2026-05-07 20:28 33.14294 33.41067 25765 ft 421 kts 137°
2026-05-07 20:28 33.12168 33.43446 25335 ft 417 kts 137°
2026-05-07 20:28 33.10056 33.45801 24873 ft 414 kts 137°
2026-05-07 20:28 33.07951 33.48130 24415 ft 412 kts 137°
2026-05-07 20:29 33.05851 33.50438 23954 ft 409 kts 137°
2026-05-07 20:29 33.03826 33.52651 23505 ft 406 kts 138°
2026-05-07 20:29 33.02537 33.54054 23262 ft 405 kts 138°
2026-05-07 20:29 33.00460 33.56310 22778 ft 402 kts 138°
2026-05-07 20:30 32.98401 33.58542 22327 ft 400 kts 138°
2026-05-07 20:30 32.96348 33.60766 21874 ft 397 kts 138°
2026-05-07 20:30 32.94310 33.62973 21421 ft 395 kts 138°
2026-05-07 20:30 32.92298 33.65151 20973 ft 392 kts 138°
2026-05-07 20:31 32.90281 33.67332 20523 ft 390 kts 138°
2026-05-07 20:31 32.88277 33.69498 20071 ft 388 kts 138°
2026-05-07 20:31 32.86297 33.71637 19633 ft 385 kts 138°
2026-05-07 20:31 32.84315 33.73777 18940 ft 390 kts 138°
2026-05-07 20:32 32.82306 33.75944 18418 ft 389 kts 138°
2026-05-07 20:32 32.80314 33.78091 17976 ft 386 kts 138°
2026-05-07 20:32 32.78331 33.80229 17575 ft 382 kts 138°
2026-05-07 20:32 32.76376 33.82335 17183 ft 378 kts 138°
2026-05-07 20:33 32.74450 33.84408 16797 ft 374 kts 138°
2026-05-07 20:33 32.72530 33.86473 16415 ft 370 kts 138°
2026-05-07 20:33 32.70633 33.88513 16041 ft 366 kts 138°
2026-05-07 20:33 32.68760 33.90525 15661 ft 362 kts 138°
2026-05-07 20:34 32.66901 33.92521 15300 ft 358 kts 138°
2026-05-07 20:34 32.65075 33.94481 14937 ft 354 kts 138°
2026-05-07 20:34 32.63259 33.96428 14582 ft 351 kts 138°
2026-05-07 20:34 32.61468 33.98348 14223 ft 347 kts 138°
2026-05-07 20:35 32.59687 34.00256 13869 ft 344 kts 138°
2026-05-07 20:35 32.57919 34.02150 13527 ft 341 kts 139°
2026-05-07 20:35 32.56169 34.04023 13173 ft 338 kts 139°
2026-05-07 20:35 32.54432 34.05880 12828 ft 335 kts 139°
2026-05-07 20:36 32.52711 34.07720 12485 ft 332 kts 139°
2026-05-07 20:36 32.51023 34.09523 12149 ft 329 kts 139°
2026-05-07 20:36 32.49319 34.11343 11806 ft 326 kts 139°
2026-05-07 20:36 32.47643 34.13131 11469 ft 323 kts 139°
2026-05-07 20:37 32.45989 34.14895 11143 ft 320 kts 139°
2026-05-07 20:37 32.44337 34.16657 10804 ft 318 kts 139°
2026-05-07 20:37 32.42704 34.18397 10471 ft 315 kts 139°
2026-05-07 20:37 32.41083 34.20125 10241 ft 309 kts 139°
2026-05-07 20:38 32.39519 34.21789 10106 ft 300 kts 139°
2026-05-07 20:38 32.38030 34.23443 10001 ft 291 kts 132°
2026-05-07 20:38 32.36785 34.25270 9933 ft 281 kts 127°
2026-05-07 20:38 32.35633 34.27137 9671 ft 279 kts 126°
2026-05-07 20:39 32.34509 34.28982 9401 ft 278 kts 126°
2026-05-07 20:39 32.33374 34.30824 9125 ft 276 kts 126°
2026-05-07 20:39 32.32240 34.32643 8851 ft 275 kts 127°
2026-05-07 20:39 32.31102 34.34452 8565 ft 273 kts 127°
2026-05-07 20:40 32.29969 34.36243 8297 ft 272 kts 127°
2026-05-07 20:40 32.28835 34.38027 8019 ft 270 kts 127°
2026-05-07 20:40 32.27728 34.39763 7748 ft 270 kts 127°
2026-05-07 20:40 32.26601 34.41528 7466 ft 268 kts 127°
2026-05-07 20:41 32.25474 34.43290 7193 ft 268 kts 127°
2026-05-07 20:41 32.24353 34.45041 6924 ft 267 kts 127°
2026-05-07 20:41 32.23239 34.46780 6637 ft 266 kts 127°
2026-05-07 20:41 32.22126 34.48517 6364 ft 264 kts 127°
2026-05-07 20:42 32.21018 34.50243 6091 ft 263 kts 127°
2026-05-07 20:42 32.19929 34.51940 5813 ft 256 kts 127°
2026-05-07 20:42 32.18868 34.53591 5544 ft 249 kts 126°
2026-05-07 20:42 32.17845 34.55239 5302 ft 250 kts 124°
2026-05-07 20:43 32.16862 34.56972 5049 ft 258 kts 122°
2026-05-07 20:43 32.15898 34.58782 4786 ft 262 kts 121°
2026-05-07 20:43 32.14943 34.60615 4504 ft 261 kts 121°
2026-05-07 20:43 32.14000 34.62434 4231 ft 260 kts 121°
2026-05-07 20:44 32.13086 34.64194 3955 ft 253 kts 121°
2026-05-07 20:44 32.12180 34.65936 3695 ft 245 kts 121°
2026-05-07 20:44 32.11313 34.67605 3477 ft 232 kts 120°
2026-05-07 20:44 32.10495 34.69180 3241 ft 219 kts 120°
2026-05-07 20:45 32.09720 34.70672 3040 ft 207 kts 120°
2026-05-07 20:45 32.08996 34.72066 2923 ft 201 kts 120°
2026-05-07 20:45 32.08272 34.73464 2673 ft 201 kts 121°
2026-05-07 20:45 32.07544 34.74867 2406 ft 198 kts 122°
2026-05-07 20:46 32.06837 34.76230 2148 ft 195 kts 122°
2026-05-07 20:46 32.06126 34.77600 1891 ft 193 kts 122°
2026-05-07 20:46 32.05438 34.78927 1637 ft 190 kts 122°
2026-05-07 20:46 32.04758 34.80240 1380 ft 184 kts 121°
2026-05-07 20:47 32.04114 34.81481 1149 ft 170 kts 121°
2026-05-07 20:47 32.03522 34.82623 1003 ft 155 kts 121°
2026-05-07 20:47 32.02954 34.83691 756 ft 153 kts 122°
2026-05-07 20:47 32.02411 34.84745 535 ft 149 kts 120°
2026-05-07 20:48 32.01889 34.85770 333 ft 147 kts 122°
2026-05-07 20:48 32.01362 34.86790 148 ft 145 kts 120°
2026-05-07 20:48 32.00863 34.87756 119 ft 115 kts 121°
2026-05-07 20:48 32.00551 34.88354 127 ft 56 kts 121°
2026-05-07 20:49 32.00417 34.88562 120 ft 25 kts 136°
2026-05-07 20:49 32.00277 34.88664 117 ft 23 kts 153°
2026-05-07 20:49 32.00127 34.88695 117 ft 22 kts 207°